Volver al catálogo

NAVSTAR 63

USA 203

ActivoNavegaciónHEO
NORAD 34661·PAYLOAD·🇺🇸 United States

Lanzado Mar 24, 2009 desde Cape Canaveral Space Force Station

Loading…

Próximos Pases (próximas 24 horas)

TLE

ActualizadoSource: Space-Track

Época: Sep 14, 2026, 13:03 UTC

1 34661U 09014A   26257.54411742  .00000016  00000-0  00000-0 0  9991
2 34661  54.4717 207.0745 0146314  61.6261 117.7774  2.00570113128077

Sigue NAVSTAR 63 en tiempo real con AllMySat

Download on the App Store